Theta_e
315 317 322 325 322 323 329 341 342 343 342 344 349 355 361 361 363 356 346 343 338 340 345 340 333 327 326 329 330 329 331 333 336 335 337 338 336 336 337 336 335 336 335 334 326 326 329 330 331
317 319 324 318 321 325 326 334 341 339 339 349 354 357 360 363 355 349 349 344 338 340 344 341 336 331 326 328 331 330 330 331 334 333 333 336 337 338 338 338 337 337 336 335 330 326 327 327 328
319 322 316 318 320 326 327 331 333 337 336 342 350 349 353 360 347 346 345 342 338 341 343 341 338 334 327 327 332 331 330 330 331 331 331 334 337 338 339 339 339 338 338 337 335 330 328 329 329
320 316 312 317 322 323 327 326 334 340 339 345 346 352 349 352 349 347 340 339 338 341 343 340 339 338 329 327 331 332 332 331 331 330 330 333 338 341 342 341 340 341 339 338 338 336 333 332 332
318 310 316 317 318 318 319 321 325 339 337 344 354 358 356 344 349 346 341 338 338 343 343 341 339 339 332 328 331 333 332 331 331 329 328 330 337 344 346 347 344 342 341 339 338 338 336 335 334
315 310 314 315 317 318 318 319 325 335 335 349 355 356 356 342 346 346 342 337 338 340 343 342 340 341 336 329 330 333 331 331 331 328 327 328 335 340 345 348 347 347 345 344 340 338 338 337 335
317 311 315 317 318 317 319 319 326 330 336 343 351 359 354 347 343 342 339 334 340 340 343 343 341 342 339 330 330 333 332 331 330 327 326 326 333 337 341 347 348 346 346 345 345 341 338 337 337
311 310 315 314 316 317 318 319 318 338 345 346 339 340 338 349 342 342 344 343 342 338 341 342 342 342 341 332 330 334 333 332 331 328 326 326 331 334 337 340 343 346 347 346 346 343 340 338 337
312 312 311 313 318 318 317 316 319 325 347 343 343 344 345 349 342 346 350 350 346 342 338 339 341 342 342 337 332 335 334 332 332 330 327 327 329 332 334 334 337 340 344 346 344 343 341 339 339
313 310 313 313 318 317 315 317 319 320 324 347 345 349 349 347 345 349 348 348 346 344 342 338 338 340 341 340 335 336 335 333 333 331 328 326 328 328 330 330 330 332 333 335 337 336 336 339 339
314 314 314 316 315 315 318 318 318 319 319 344 351 350 347 348 347 346 347 347 346 344 340 337 337 337 340 340 337 338 336 333 332 331 327 327 327 329 330 333 335 338 339 331 330 329 331 333 336
316 314 314 316 316 316 317 319 319 318 333 343 348 348 348 350 348 347 344 342 342 343 341 337 335 333 336 336 336 337 335 332 331 331 328 327 327 336 339 340 341 339 339 336 327 328 334 338 338
315 315 316 316 315 314 315 317 319 322 345 346 347 343 340 338 339 347 344 342 342 341 340 339 334 328 330 332 331 332 330 329 329 329 327 328 327 337 341 340 340 341 341 340 332 333 336 339 341
318 319 318 316 316 316 318 317 318 320 343 345 345 342 337 335 343 346 344 344 340 333 341 339 337 334 331 336 336 329 328 328 328 328 328 333 335 334 337 342 341 341 341 342 340 339 337 337 340
320 321 319 320 320 319 318 318 318 317 338 340 340 339 339 336 343 347 343 340 333 333 342 339 339 338 335 337 338 338 335 332 335 337 340 339 339 339 339 345 344 343 343 345 343 341 339 338 338
320 319 319 319 320 320 319 320 319 317 316 334 335 335 336 335 340 342 343 340 334 337 337 341 339 338 337 337 339 339 339 339 339 340 341 342 343 344 341 344 347 346 345 344 343 342 341 342 340
316 320 320 320 320 320 319 320 319 317 316 317 331 333 333 339 346 339 336 334 335 334 337 342 341 339 338 341 343 342 341 340 339 340 341 342 343 344 345 344 346 349 347 345 344 343 340 339 340
320 321 319 319 320 320 320 319 318 316 316 317 317 328 337 342 346 344 337 336 336 336 336 340 342 341 340 342 347 350 349 349 349 346 344 344 346 345 345 347 348 348 347 347 347 344 342 341 340
319 320 321 321 321 322 321 320 319 318 317 315 318 337 337 340 339 339 341 342 342 339 340 342 344 343 340 342 345 346 346 347 348 348 348 347 346 347 348 347 347 348 347 346 346 345 343 342 343
320 320 321 320 321 322 321 321 321 320 318 318 318 336 337 337 337 335 335 336 337 337 342 348 348 344 343 346 347 346 345 345 344 344 346 348 348 346 347 349 347 348 347 347 347 348 344 344 344
321 321 322 322 322 321 321 322 319 319 320 325 323 333 336 337 337 337 337 339 340 341 344 350 354 353 349 350 351 352 351 350 349 349 348 348 348 348 348 348 350 349 347 347 347 347 345 344 345
320 321 322 323 323 322 321 323 321 319 330 329 327 330 334 335 337 338 339 342 345 345 344 344 339 340 344 350 353 351 353 352 353 351 352 350 351 350 350 350 349 347 342 334 337 344 344 342 342
322 322 322 323 322 319 321 321 320 330 333 329 327 327 331 333 338 339 340 340 338 339 339 342 343 343 344 338 338 344 346 347 346 347 346 344 344 345 345 349 347 341 333 332 331 335 340 341 341
322 324 321 319 318 321 324 322 327 333 333 330 328 328 330 328 328 333 334 334 332 331 332 333 334 334 336 339 341 341 341 336 336 335 335 335 335 336 339 341 342 339 337 331 330 328 329 336 342
322 321 325 325 325 324 328 327 329 331 331 328 328 326 325 325 323 323 327 329 330 330 329 329 329 330 329 329 330 330 330 330 332 333 332 334 333 333 335 337 338 338 335 330 330 328 325 327 340
326 322 325 331 332 329 327 330 330 329 330 326 326 324 324 325 323 323 322 324 325 326 329 329 329 325 325 325 328 328 329 329 328 327 326 327 332 333 331 333 338 335 336 336 334 328 326 329 338
326 325 325 329 331 332 330 330 328 328 329 328 327 326 325 323 322 322 320 321 318 318 318 323 321 320 320 319 320 320 322 322 322 323 323 323 323 328 331 329 331 335 333 332 334 327 327 328 333
325 324 326 325 331 335 332 332 330 327 329 328 327 326 325 323 323 322 321 320 317 318 317 317 318 318 317 317 318 318 317 318 318 318 319 319 324 323 326 328 328 328 334 334 330 330 329 327 328
317 324 325 324 326 329 329 327 325 324 326 327 326 324 323 322 321 320 319 318 319 316 315 314 315 314 314 314 314 315 315 316 315 315 316 317 319 321 321 320 325 327 329 330 334 330 326 324 326
319 325 324 322 327 324 322 324 325 321 322 322 323 323 320 321 321 320 318 316 317 316 315 313 314 313 313 313 313 313 314 314 313 313 313 313 315 318 319 320 323 319 323 330 331 333 330 327 328
Wind_Speed
9 10 12 3 4 5 3 5 3 4 5 1 11 6 8 3 1 3 7 20 38 35 32 31 28 27 25 24 22 21 20 19 20 20 20 19 20 19 19 18 17 17 18 20 20 20 20 19 17
9 8 2 2 4 3 4 5 8 6 3 11 13 8 5 3 6 10 13 25 38 35 33 31 29 27 25 24 22 21 20 19 18 18 19 19 19 18 17 16 15 16 16 18 19 18 17 16 15
9 5 3 4 3 4 4 5 7 2 5 4 5 5 4 3 9 15 18 35 35 33 32 32 28 26 26 23 21 21 20 19 18 17 17 17 17 17 15 14 14 14 14 16 17 16 15 13 12
6 5 4 2 4 5 4 8 9 5 5 4 6 7 3 7 18 15 37 38 35 32 32 31 29 26 25 24 21 19 18 18 17 16 16 17 16 16 14 13 12 11 12 12 12 13 12 10 10
3 3 3 3 5 6 7 14 12 7 3 2 5 4 3 5 16 33 35 36 34 30 31 31 29 26 25 24 22 19 18 17 16 15 15 16 16 15 14 11 10 9 9 9 9 9 10 9 9
4 3 4 3 4 7 8 15 7 2 5 13 11 8 2 21 32 29 33 33 32 32 31 30 28 26 24 24 22 20 19 17 17 16 15 15 15 14 14 12 11 9 7 7 7 6 7 7 8
5 4 4 4 6 7 8 19 3 7 6 3 13 7 2 15 31 30 29 32 31 30 30 29 27 25 23 23 23 21 19 18 17 17 17 16 15 14 14 14 12 11 9 6 5 5 5 5 5
4 4 3 3 3 7 6 18 9 4 3 4 9 7 6 11 36 31 30 32 28 27 27 28 27 25 24 23 22 21 19 18 17 17 17 17 16 15 14 13 13 13 13 11 10 7 7 6 5
3 2 4 4 3 9 12 10 9 5 6 3 5 4 5 24 31 31 26 27 30 30 30 29 28 26 25 24 23 21 19 18 17 16 16 16 16 15 14 13 12 13 13 13 11 9 9 9 8
4 3 7 7 4 8 9 7 5 8 2 6 8 10 19 28 29 28 21 21 26 30 33 32 31 29 26 23 23 22 21 21 20 18 17 17 15 15 14 13 13 12 12 12 12 11 10 11 11
2 6 8 13 11 8 5 9 5 4 6 4 13 8 4 11 17 20 17 18 19 28 30 30 28 26 26 26 26 24 23 22 20 20 19 18 17 15 16 15 14 14 14 14 13 12 12 12 12
3 8 7 14 11 5 5 3 7 4 3 13 18 16 7 11 9 26 21 18 11 6 24 29 30 28 27 26 26 26 25 23 23 22 20 20 20 19 16 18 16 15 15 14 15 14 12 11 12
6 10 10 15 11 7 5 4 5 0 7 10 13 8 13 13 14 27 39 33 21 15 21 28 31 31 29 26 26 28 27 26 24 23 22 22 22 21 18 22 20 19 17 16 16 16 16 15 15
4 5 9 9 8 4 2 6 4 2 12 11 14 16 14 12 22 28 35 40 38 38 39 37 33 32 32 29 28 30 28 27 26 25 24 24 23 25 23 20 23 22 20 20 19 19 18 19 18
5 7 10 4 3 6 3 10 7 9 14 13 14 13 12 14 26 30 36 48 56 58 41 42 37 35 36 32 31 30 27 27 27 24 24 24 25 26 26 21 24 26 21 20 21 21 22 21 24
6 4 5 6 8 9 6 11 16 11 8 16 14 13 13 8 16 33 41 48 53 47 31 32 31 36 38 36 35 34 29 27 28 28 28 27 27 25 27 26 24 25 23 20 20 19 17 17 17
6 4 5 12 4 7 5 12 11 12 9 10 15 15 13 4 9 33 40 45 48 49 37 33 33 34 40 37 29 29 28 29 31 31 32 31 32 30 28 28 26 22 21 20 18 17 18 13 14
5 4 5 6 11 5 6 7 8 9 5 11 8 11 8 8 7 18 41 49 40 41 34 38 34 42 43 38 31 26 23 21 20 25 29 32 31 33 32 31 29 23 23 19 18 18 16 17 18
5 7 11 14 10 3 7 6 9 9 8 9 5 11 11 6 4 17 25 31 34 36 28 31 30 41 44 37 34 30 30 28 25 21 20 22 24 26 30 34 31 28 27 28 23 22 20 16 14
8 9 10 9 7 4 7 10 5 6 8 7 8 13 11 7 8 15 27 28 29 29 27 26 38 45 43 37 33 28 27 27 29 32 29 24 27 27 28 35 36 31 29 25 25 22 20 17 15
14 6 7 8 5 4 7 11 7 9 11 22 2 12 15 18 13 9 15 21 20 16 17 15 17 30 34 33 30 24 23 23 23 25 23 24 28 31 31 33 36 34 26 26 25 22 20 17 13
9 13 16 11 3 5 3 9 6 8 21 25 22 12 13 10 6 7 11 15 25 23 20 18 13 9 5 11 21 25 18 23 19 13 4 10 7 12 22 32 32 11 7 28 31 17 22 23 21
9 6 5 6 5 5 1 3 2 13 15 23 25 10 9 9 8 10 11 19 25 28 28 27 23 21 12 4 3 4 5 10 10 6 7 12 11 11 15 9 8 7 12 33 35 27 14 17 22
6 3 5 4 3 4 4 0 4 5 4 17 22 25 20 20 15 9 17 24 25 27 27 29 29 27 26 26 17 18 21 23 23 23 23 24 25 20 19 16 5 9 11 13 23 19 30 23 18
8 6 4 4 4 5 1 3 4 1 5 15 18 22 20 17 17 19 16 12 19 24 25 26 27 26 24 24 24 23 24 26 27 26 25 25 27 25 18 11 5 7 21 26 28 43 31 33 25
2 5 4 5 3 5 4 4 4 6 4 6 16 17 16 17 16 18 27 21 18 24 23 24 24 26 25 24 24 24 24 25 26 25 24 24 22 20 20 15 8 4 11 21 30 44 37 29 21
2 1 3 5 3 2 3 2 3 7 10 12 9 15 17 13 15 18 35 38 26 29 30 20 20 22 22 22 22 22 22 24 24 23 23 22 19 17 17 18 16 10 6 15 24 38 30 23 18
4 2 3 3 1 4 4 3 5 5 4 5 8 10 11 10 4 9 16 29 29 26 18 22 19 20 21 20 20 20 20 20 21 22 21 19 16 16 16 17 19 18 15 13 19 26 28 22 18
3 3 6 4 3 5 3 5 5 7 5 6 6 7 6 9 6 6 8 14 8 9 15 18 18 18 20 19 18 18 18 18 18 19 19 18 15 13 13 14 13 16 18 18 16 23 27 28 22
3 5 6 5 4 2 2 6 6 8 7 7 8 8 6 5 3 3 2 7 10 5 11 14 13 17 17 18 17 16 16 17 19 19 18 17 16 14 12 12 11 14 17 17 16 17 23 24 23
Wind_Direction
317 321 308 31 39 62 298 267 196 277 186 184 154 172 132 47 107 201 144 161 160 157 162 161 153 149 147 142 139 136 133 129 128 127 126 126 125 123 120 117 113 105 100 94 96 105 104 101 97
330 337 48 61 82 51 276 235 182 168 225 118 105 106 55 91 84 118 120 168 159 156 161 161 157 152 149 148 145 142 138 134 133 134 132 133 132 129 126 122 119 114 107 102 100 108 108 104 99
327 311 76 100 134 190 215 250 251 324 204 186 107 55 67 44 113 145 159 162 157 157 162 162 161 155 152 153 152 148 144 140 139 140 139 139 138 136 135 130 125 121 116 110 109 113 111 107 101
351 8 21 103 265 272 247 280 286 115 273 109 106 58 65 353 160 162 156 159 158 159 163 164 163 157 156 156 157 154 148 142 142 145 145 146 146 143 141 141 136 134 127 121 117 118 119 120 111
15 56 24 13 273 268 250 271 237 184 65 90 124 85 28 26 153 151 157 162 159 159 165 166 165 161 160 161 161 159 155 149 148 151 152 156 155 152 148 146 145 147 144 139 131 126 125 128 123
15 89 26 293 284 276 308 286 174 148 128 115 94 106 103 141 135 149 156 164 163 162 167 168 167 166 165 166 166 166 163 158 157 158 161 163 164 163 159 157 164 169 164 164 157 151 141 139 138
124 80 236 252 260 338 305 334 197 171 126 217 156 121 213 154 145 156 161 166 163 163 165 169 170 171 171 172 172 173 170 167 167 169 168 169 173 172 173 172 178 181 189 184 207 195 189 171 161
110 94 278 260 34 284 299 345 338 94 159 121 154 172 193 170 154 156 164 159 159 165 169 172 174 177 178 177 178 178 178 176 177 177 176 174 178 182 183 189 190 187 194 203 212 219 225 218 202
105 43 258 261 20 288 302 0 316 45 103 352 8 118 195 147 151 147 139 149 161 169 174 177 180 184 184 183 182 182 184 185 186 186 185 184 183 188 192 195 202 203 205 208 219 226 230 232 228
111 133 246 186 235 263 297 328 295 3 145 58 71 67 123 139 139 143 146 156 164 175 180 180 182 186 186 188 190 189 190 192 192 191 192 196 195 194 201 201 206 213 217 223 230 238 245 245 241
214 207 249 278 249 245 268 303 309 28 16 160 149 134 118 129 130 131 161 166 174 180 182 186 186 188 189 191 194 195 198 199 200 203 200 200 199 201 208 208 211 224 228 229 228 236 245 251 246
221 252 242 269 273 277 240 264 323 62 232 152 150 150 155 178 143 135 106 74 49 215 195 193 192 190 192 200 199 200 202 203 207 209 210 208 206 208 212 222 225 232 236 239 233 232 232 247 248
199 266 273 262 260 248 272 257 249 91 144 155 153 174 171 175 117 125 127 132 130 245 240 210 193 192 194 199 204 204 208 210 211 213 214 214 213 213 220 230 235 234 242 248 239 237 237 239 248
280 270 269 289 263 251 267 282 119 254 148 164 173 194 198 216 128 137 138 149 171 210 222 209 193 195 197 198 203 206 211 216 215 218 220 217 219 219 225 231 233 236 245 251 249 248 249 250 252
300 334 326 273 284 287 11 323 277 243 165 180 203 213 226 228 131 153 157 161 184 208 212 205 191 195 199 203 207 210 215 216 217 216 222 218 220 222 222 230 234 239 244 255 251 254 256 261 264
358 25 3 296 339 291 99 274 268 253 204 193 210 219 222 241 142 167 176 174 188 200 209 195 197 203 206 206 213 213 218 218 220 224 225 226 226 224 222 225 230 240 243 247 246 245 247 251 246
2 276 308 311 253 267 176 273 273 251 215 236 198 210 218 205 176 168 175 171 189 205 194 193 190 209 213 207 205 209 219 227 230 235 233 234 234 230 227 231 234 236 238 244 244 240 235 268 270
253 295 292 273 299 165 285 269 299 304 268 226 197 201 168 190 174 167 172 185 192 197 192 196 196 203 211 204 201 201 208 219 230 236 240 240 241 237 232 232 235 235 238 242 250 247 243 251 258
238 263 263 279 272 282 296 287 302 306 310 268 114 138 137 161 140 138 153 174 190 189 201 203 202 208 204 207 208 212 219 225 234 240 241 245 253 251 242 236 238 236 238 243 244 242 233 241 254
251 253 268 269 253 304 310 297 315 326 294 263 157 149 149 149 155 146 149 159 177 188 184 197 204 205 203 208 208 215 222 231 238 243 248 257 261 263 253 243 239 240 240 245 240 241 236 243 259
269 243 258 243 279 344 343 313 348 318 19 355 153 156 157 160 164 154 139 143 140 128 133 154 187 206 202 210 209 211 218 228 237 245 254 259 262 264 261 260 247 241 241 255 252 257 249 256 256
245 257 252 257 277 271 86 291 341 8 15 12 357 326 157 155 121 97 108 103 101 97 94 92 99 113 166 209 221 222 227 232 243 264 344 45 13 294 279 269 255 206 62 23 4 295 278 283 278
234 266 260 272 272 97 327 299 336 41 4 0 348 309 342 37 74 101 94 94 89 91 87 83 78 68 65 127 148 118 104 43 47 35 35 19 10 347 355 284 216 153 27 357 338 345 311 292 284
274 304 31 36 69 55 327 30 36 24 347 10 15 27 29 10 15 40 106 104 95 92 88 85 79 68 65 69 73 64 60 55 51 50 48 47 46 34 37 42 131 170 298 228 224 246 261 259 270
46 53 350 333 340 214 296 53 128 144 73 81 55 35 22 19 25 31 351 46 89 89 85 81 77 71 65 58 56 54 58 60 62 62 55 48 46 43 39 34 27 240 203 215 222 219 246 240 249
71 132 153 241 233 262 8 226 148 110 129 76 90 76 32 22 13 27 21 316 71 70 70 70 78 72 64 57 53 49 51 57 59 55 50 48 45 40 36 32 14 320 241 247 240 223 241 238 253
286 1 176 105 335 41 246 306 193 90 62 55 54 86 82 29 4 6 25 306 45 60 59 66 62 64 57 51 48 41 38 39 45 47 44 41 38 33 28 30 27 4 276 269 251 233 254 248 255
90 132 61 19 209 273 281 262 236 358 34 82 83 81 84 100 44 15 13 341 25 21 35 64 61 58 54 46 41 34 30 28 29 27 29 30 35 39 30 19 14 9 352 296 264 255 252 247 260
2 67 53 109 131 190 271 250 208 197 206 169 149 127 111 109 113 77 319 347 330 65 19 38 52 54 50 38 28 21 15 12 15 17 14 16 19 26 28 16 9 1 353 345 295 266 258 252 257
114 132 144 132 221 228 151 267 189 193 201 174 169 153 133 128 126 87 192 274 204 145 14 9 43 39 31 22 8 7 359 357 355 359 354 351 4 5 8 7 1 357 350 357 346 292 270 258 252